contact:dominique.lefevre@mio.osupytheas.fr, maurice.libes@osupytheas.fr, didier.mallarino@osupytheas.fr
Project:EMSO http://www.emso-fr.org/EMSO-France
Depth: 2436.0 m
Title:EMSO Ligure Ouest : Data MII capteur AQUADOPP
Date,Latitude,Longitude,X_East,Y_North,Z_Up,Amplitude_X,Amplitude_Y,Amplitude_Z,Batterie,SoundSpeed,Heading,Pitch,Roll,Pressure,TIS,Speed,Direction
, degrees North, degrees East, m.s-1, m.s-1,m.s-1, 1, 1, 1, Volt, m.s-1, degree, degree, degree, dbar, degree_C, m.s-1, degree
2021-08-25T00:04:03,42.805,6.029,0.013,-0.009,-0.01,100.0,100.0,100.0,13.4,1505.2,327.8,-0.8,1.8,2470.609,13.28,0.015,124.7
2021-08-25T00:07:03,42.805,6.029,0.0,-0.016,-0.036,100.0,101.0,100.0,13.4,1505.2,330.5,-0.8,1.8,2470.6,13.28,0.016,180.0
2021-08-25T00:10:03,42.805,6.029,0.006,-0.011,-0.009,100.0,101.0,100.0,13.4,1505.2,328.5,-0.7,1.8,2470.594,13.28,0.012,151.4
2021-08-25T00:13:03,42.805,6.029,-0.009,-0.025,-0.084,99.0,101.0,99.0,13.3,1505.2,329.4,-0.8,1.8,2470.61,13.28,0.026,199.8
2021-08-25T00:16:03,42.805,6.029,-0.005,-0.023,0.0,100.0,101.0,100.0,13.3,1505.2,328.2,-0.8,1.8,2470.605,13.28,0.023,192.3
2021-08-25T00:19:03,42.805,6.029,0.019,-0.018,0.006,99.0,101.0,100.0,13.4,1505.2,328.9,-0.8,1.8,2470.566,13.28,0.026,133.5
2021-08-25T00:22:03,42.805,6.029,0.03,-0.022,-0.02,100.0,101.0,99.0,13.4,1505.2,329.1,-0.7,1.8,2470.582,13.28,0.037,126.3
2021-08-25T00:25:03,42.805,6.029,0.013,-0.006,-0.01,101.0,99.0,100.0,13.4,1505.2,325.2,-0.8,1.8,2470.593,13.28,0.014,114.8
2021-08-25T00:28:03,42.805,6.029,-0.008,0.007,-0.021,100.0,101.0,100.0,13.4,1505.2,327.7,-0.8,1.8,2470.567,13.28,0.01,311.2
2021-08-25T00:31:03,42.805,6.029,0.008,0.001,-0.006,99.0,100.0,100.0,13.4,1505.2,328.3,-0.7,1.8,2470.57,13.28,0.008,82.9
2021-08-25T00:34:03,42.805,6.029,-0.002,-0.008,0.002,101.0,101.0,99.0,13.4,1505.2,327.7,-0.7,1.8,2470.567,13.28,0.008,194.0
2021-08-25T00:37:03,42.805,6.029,0.004,0.0,-0.019,100.0,99.0,100.0,13.4,1505.2,329.2,-0.7,1.8,2470.587,13.28,0.004,90.0
2021-08-25T00:40:03,42.805,6.029,-0.003,-0.015,-0.015,101.0,100.0,99.0,13.4,1505.2,326.6,-0.8,1.8,2470.518,13.28,0.015,191.3
2021-08-25T00:43:03,42.805,6.029,-0.009,-0.007,-0.013,99.0,102.0,100.0,13.4,1505.2,325.1,-0.7,1.8,2470.585,13.28,0.011,232.1
2021-08-25T00:46:03,42.805,6.029,0.026,-0.013,0.0,101.0,103.0,100.0,13.4,1505.2,327.1,-0.7,1.8,2470.54,13.28,0.029,116.6
2021-08-25T00:49:03,42.805,6.029,-0.004,-0.007,0.002,99.0,102.0,99.0,13.4,1505.2,325.3,-0.8,1.8,2470.547,13.28,0.008,209.7
2021-08-25T00:52:03,42.805,6.029,0.002,-0.011,-0.041,100.0,100.0,100.0,13.4,1505.2,328.8,-0.7,1.9,2470.524,13.28,0.011,169.7
2021-08-25T00:55:03,42.805,6.029,-0.002,-0.004,0.006,99.0,100.0,100.0,13.3,1505.2,330.0,-0.8,1.8,2470.55,13.28,0.004,206.6
2021-08-25T00:58:03,42.805,6.029,0.014,-0.007,-0.006,101.0,100.0,99.0,13.3,1505.2,327.7,-0.7,1.9,2470.552,13.28,0.015,116.6
2021-08-25T01:04:03,42.805,6.029,-0.015,0.009,-0.01,100.0,102.0,101.0,13.3,1505.2,325.8,-0.7,1.8,2470.587,13.28,0.017,301.0
2021-08-25T01:07:03,42.805,6.029,0.003,0.013,0.019,100.0,101.0,100.0,13.4,1505.2,329.1,-0.8,1.8,2470.531,13.28,0.013,13.0
2021-08-25T01:10:03,42.805,6.029,0.024,-0.022,-0.018,100.0,100.0,101.0,13.4,1505.2,330.4,-0.8,1.8,2470.54,13.28,0.032,132.5
2021-08-25T01:13:03,42.805,6.029,0.023,-0.016,-0.001,100.0,102.0,100.0,13.4,1505.2,325.8,-0.7,1.8,2470.556,13.28,0.028,124.8
2021-08-25T01:16:03,42.805,6.029,-0.004,0.012,-0.014,100.0,101.0,100.0,13.4,1505.2,327.8,-0.7,1.8,2470.526,13.28,0.012,341.6
2021-08-25T01:19:03,42.805,6.029,-0.015,-0.011,-0.028,98.0,103.0,100.0,13.3,1505.2,326.9,-0.8,1.9,2470.547,13.28,0.018,233.7
2021-08-25T01:22:03,42.805,6.029,0.007,-0.004,-0.008,100.0,100.0,100.0,13.4,1505.2,328.6,-0.7,1.8,2470.539,13.28,0.008,119.7
2021-08-25T01:25:03,42.805,6.029,0.016,-0.015,0.008,101.0,101.0,100.0,13.4,1505.2,326.1,-0.8,1.8,2470.521,13.28,0.021,133.1
2021-08-25T01:28:03,42.805,6.029,0.026,-0.023,0.003,100.0,100.0,100.0,13.4,1505.2,329.3,-0.7,1.8,2470.53,13.28,0.034,131.5
2021-08-25T01:31:03,42.805,6.029,0.005,-0.008,-0.008,101.0,100.0,100.0,13.4,1505.2,326.7,-0.7,1.8,2470.524,13.28,0.009,148.0
2021-08-25T01:34:03,42.805,6.029,-0.005,-0.014,-0.026,101.0,99.0,100.0,13.4,1505.2,326.4,-0.7,1.8,2470.49,13.28,0.014,199.6
2021-08-25T01:37:03,42.805,6.029,-0.013,0.003,-0.021,99.0,100.0,100.0,13.4,1505.2,326.4,-0.8,1.8,2470.524,13.28,0.013,283.0
2021-08-25T01:40:03,42.805,6.029,0.035,-0.023,-0.026,99.0,99.0,100.0,13.4,1505.2,328.9,-0.7,1.8,2470.511,13.28,0.041,123.3
2021-08-25T01:43:03,42.805,6.029,0.022,-0.027,-0.044,99.0,101.0,100.0,13.4,1505.2,326.9,-0.7,1.8,2470.492,13.28,0.034,140.8
2021-08-25T01:46:03,42.805,6.029,-0.012,-0.011,-0.004,100.0,100.0,99.0,13.3,1505.2,327.3,-0.7,1.8,2470.522,13.28,0.016,227.5
2021-08-25T01:49:03,42.805,6.029,0.018,-0.02,0.0,100.0,100.0,100.0,13.3,1505.2,327.9,-0.7,1.9,2470.492,13.28,0.026,138.0
2021-08-25T01:52:03,42.805,6.029,0.015,-0.044,-0.056,99.0,101.0,100.0,13.4,1505.2,328.2,-0.7,1.8,2470.506,13.28,0.046,161.2
2021-08-25T01:55:03,42.805,6.029,0.012,-0.008,0.006,102.0,101.0,99.0,13.4,1505.2,329.8,-0.8,1.9,2470.496,13.28,0.014,123.7
2021-08-25T01:58:03,42.805,6.029,-0.009,-0.019,-0.019,100.0,100.0,99.0,13.4,1505.2,328.0,-0.8,1.8,2470.478,13.28,0.021,205.3
2021-08-25T02:04:03,42.805,6.029,0.0,0.009,0.019,101.0,99.0,99.0,13.4,1505.2,330.8,-0.8,1.8,2470.503,13.28,0.009,0.0
2021-08-25T02:07:03,42.805,6.029,0.02,-0.021,-0.028,100.0,101.0,100.0,13.4,1505.2,326.0,-0.7,1.8,2470.528,13.28,0.028,136.4
2021-08-25T02:10:03,42.805,6.029,0.006,-0.015,-0.029,100.0,100.0,100.0,13.3,1505.2,327.3,-0.8,1.8,2470.502,13.28,0.016,158.2
2021-08-25T02:13:03,42.805,6.029,-0.032,-0.012,-0.025,100.0,99.0,100.0,13.4,1505.2,325.8,-0.8,1.8,2470.508,13.28,0.034,249.4
2021-08-25T02:16:03,42.805,6.029,-0.003,-0.034,-0.019,101.0,100.0,99.0,13.3,1505.2,327.5,-0.7,1.8,2470.518,13.28,0.034,185.0
2021-08-25T02:19:03,42.805,6.029,0.004,-0.039,-0.037,99.0,100.0,99.0,13.4,1505.2,328.6,-0.8,1.8,2470.497,13.28,0.039,174.1
2021-08-25T02:22:03,42.805,6.029,0.02,-0.006,-0.018,99.0,101.0,100.0,13.4,1505.2,326.1,-0.8,1.8,2470.517,13.28,0.02,106.7
2021-08-25T02:25:03,42.805,6.029,-0.004,-0.007,-0.024,99.0,100.0,99.0,13.3,1505.2,326.5,-0.8,1.9,2470.459,13.28,0.008,209.7
2021-08-25T02:28:03,42.805,6.029,0.01,-0.021,-0.022,99.0,102.0,100.0,13.4,1505.2,328.6,-0.8,1.8,2470.495,13.28,0.023,154.5
2021-08-25T02:31:03,42.805,6.029,0.0,0.012,0.005,100.0,100.0,99.0,13.4,1505.2,325.6,-0.7,1.8,2470.478,13.28,0.012,0.0
2021-08-25T02:34:03,42.805,6.029,0.02,-0.006,-0.003,99.0,102.0,100.0,13.3,1505.2,329.4,-0.8,1.8,2470.505,13.28,0.02,106.7
2021-08-25T02:37:03,42.805,6.029,-0.005,-0.002,0.018,100.0,101.0,99.0,13.4,1505.2,331.0,-0.8,1.8,2470.468,13.28,0.005,248.2
2021-08-25T02:40:03,42.805,6.029,-0.026,-0.005,-0.017,99.0,101.0,100.0,13.3,1505.2,330.3,-0.7,1.8,2470.486,13.28,0.026,259.1
2021-08-25T02:43:03,42.805,6.029,0.011,-0.039,-0.023,99.0,100.0,100.0,13.3,1505.2,328.4,-0.7,1.8,2470.483,13.28,0.04,164.3
2021-08-25T02:46:03,42.805,6.029,0.021,0.008,-0.013,101.0,100.0,100.0,13.4,1505.2,326.2,-0.8,1.8,2470.452,13.28,0.022,69.1
2021-08-25T02:49:03,42.805,6.029,0.022,-0.007,-0.016,100.0,100.0,100.0,13.4,1505.2,328.6,-0.8,1.8,2470.461,13.28,0.023,107.6
2021-08-25T02:52:03,42.805,6.029,0.036,-0.014,0.002,100.0,100.0,100.0,13.3,1505.2,330.9,-0.7,1.8,2470.436,13.28,0.038,111.2
2021-08-25T02:55:03,42.805,6.029,-0.001,-0.004,0.009,100.0,100.0,99.0,13.3,1505.2,329.8,-0.8,1.8,2470.431,13.28,0.004,194.0
2021-08-25T02:58:03,42.805,6.029,-0.005,-0.014,-0.009,99.0,102.0,99.0,13.3,1505.2,327.2,-0.8,1.8,2470.462,13.28,0.014,199.6
2021-08-25T03:04:03,42.805,6.029,0.003,0.002,-0.013,99.0,103.0,99.0,13.4,1505.2,326.4,-0.7,1.8,2470.488,13.28,0.003,56.3
2021-08-25T03:07:03,42.805,6.029,0.023,-0.022,-0.033,100.0,101.0,100.0,13.4,1505.2,329.5,-0.7,1.8,2470.472,13.28,0.031,133.7
2021-08-25T03:10:03,42.805,6.029,-0.002,-0.013,-0.022,100.0,101.0,100.0,13.4,1505.2,325.8,-0.8,1.8,2470.496,13.28,0.013,188.7
2021-08-25T03:13:03,42.805,6.029,-0.023,0.015,-0.015,100.0,101.0,99.0,13.4,1505.2,328.3,-0.8,1.8,2470.477,13.28,0.027,303.1
2021-08-25T03:16:03,42.805,6.029,-0.003,-0.01,-0.018,99.0,102.0,99.0,13.3,1505.2,327.0,-0.7,1.8,2470.486,13.28,0.01,196.7
2021-08-25T03:19:03,42.805,6.029,0.012,-0.013,-0.022,100.0,101.0,99.0,13.3,1505.2,330.7,-0.8,1.8,2470.449,13.28,0.017,137.3
2021-08-25T03:22:03,42.805,6.029,0.018,-0.003,0.025,100.0,101.0,99.0,13.4,1505.2,327.3,-0.8,1.8,2470.467,13.28,0.018,99.5
2021-08-25T03:25:03,42.805,6.029,0.036,-0.03,-0.018,100.0,101.0,99.0,13.4,1505.2,329.5,-0.8,1.9,2470.441,13.28,0.046,129.8
2021-08-25T03:28:03,42.805,6.029,0.01,-0.003,0.01,99.0,101.0,100.0,13.4,1505.2,327.7,-0.8,1.8,2470.46,13.28,0.01,106.7
2021-08-25T03:31:03,42.805,6.029,-0.014,-0.001,-0.005,99.0,101.0,100.0,13.4,1505.2,327.3,-0.7,1.8,2470.437,13.28,0.014,265.9
2021-08-25T03:34:03,42.805,6.029,-0.006,-0.012,-0.022,100.0,103.0,99.0,13.3,1505.2,328.8,-0.8,1.8,2470.426,13.28,0.013,206.6
2021-08-25T03:37:03,42.805,6.029,0.024,-0.001,-0.019,100.0,100.0,99.0,13.4,1505.2,328.2,-0.8,1.8,2470.433,13.28,0.024,92.4
2021-08-25T03:40:03,42.805,6.029,0.007,-0.007,-0.025,100.0,101.0,100.0,13.4,1505.2,325.4,-0.8,1.8,2470.416,13.28,0.009,135.0
2021-08-25T03:43:03,42.805,6.029,0.028,-0.009,0.011,100.0,100.0,100.0,13.4,1505.2,330.2,-0.7,1.8,2470.447,13.28,0.029,107.8
2021-08-25T03:46:03,42.805,6.029,0.007,-0.01,-0.003,100.0,100.0,100.0,13.3,1505.2,329.2,-0.8,1.8,2470.428,13.28,0.012,145.0
2021-08-25T03:49:03,42.805,6.029,0.017,-0.006,0.002,99.0,101.0,99.0,13.4,1505.2,329.8,-0.7,1.8,2470.422,13.28,0.018,109.4
2021-08-25T03:52:03,42.805,6.029,0.001,0.002,-0.017,102.0,98.0,100.0,13.3,1505.2,327.2,-0.8,1.8,2470.43,13.28,0.002,26.6
2021-08-25T03:55:03,42.805,6.029,0.015,0.006,0.026,101.0,101.0,98.0,13.4,1505.2,328.9,-0.7,1.8,2470.42,13.28,0.016,68.2
2021-08-25T03:58:03,42.805,6.029,0.018,0.0,0.011,99.0,100.0,101.0,13.4,1505.2,329.3,-0.8,1.8,2470.425,13.28,0.018,90.0
2021-08-25T04:04:03,42.805,6.029,0.014,-0.012,0.003,99.0,100.0,99.0,13.3,1505.2,329.4,-0.8,1.8,2470.485,13.28,0.018,130.6
2021-08-25T04:07:03,42.805,6.029,0.025,0.0,-0.005,101.0,100.0,99.0,13.4,1505.2,328.6,-0.8,1.8,2470.444,13.28,0.025,90.0
2021-08-25T04:10:03,42.805,6.029,-0.011,0.011,-0.009,100.0,100.0,100.0,13.4,1505.2,331.1,-0.7,1.8,2470.469,13.28,0.015,315.0
2021-08-25T04:13:03,42.805,6.029,-0.007,-0.009,-0.008,100.0,101.0,99.0,13.4,1505.2,325.6,-0.7,1.8,2470.464,13.28,0.011,217.9
2021-08-25T04:16:03,42.805,6.029,0.022,0.008,0.02,100.0,101.0,99.0,13.3,1505.2,329.5,-0.7,1.8,2470.472,13.28,0.023,70.0
2021-08-25T04:19:03,42.805,6.029,0.0,-0.003,0.006,98.0,102.0,100.0,13.4,1505.2,328.1,-0.7,1.8,2470.461,13.28,0.003,180.0
2021-08-25T04:22:03,42.805,6.029,0.005,0.001,-0.012,99.0,102.0,100.0,13.3,1505.2,326.4,-0.8,1.8,2470.477,13.28,0.005,78.7
2021-08-25T04:25:03,42.805,6.029,0.004,0.012,-0.005,100.0,101.0,99.0,13.4,1505.2,329.1,-0.8,1.8,2470.465,13.28,0.012,18.4
2021-08-25T04:28:03,42.805,6.029,-0.001,0.0,0.022,100.0,100.0,100.0,13.4,1505.2,328.6,-0.7,1.8,2470.469,13.28,0.001,270.0
2021-08-25T04:31:03,42.805,6.029,0.004,-0.009,0.012,99.0,100.0,101.0,13.4,1505.2,325.4,-0.7,1.8,2470.467,13.28,0.009,156.0
2021-08-25T04:34:03,42.805,6.029,0.033,-0.02,-0.005,100.0,101.0,100.0,13.4,1505.2,331.1,-0.7,1.8,2470.457,13.28,0.038,121.2
2021-08-25T04:37:03,42.805,6.029,-0.003,0.004,-0.008,99.0,101.0,100.0,13.4,1505.2,329.1,-0.7,1.8,2470.466,13.28,0.005,323.1
2021-08-25T04:40:03,42.805,6.029,-0.003,0.002,-0.007,99.0,100.0,100.0,13.4,1505.2,330.4,-0.7,1.8,2470.454,13.28,0.003,303.7
2021-08-25T04:43:03,42.805,6.029,0.0,0.002,-0.003,101.0,100.0,100.0,13.4,1505.2,325.0,-0.8,1.8,2470.436,13.28,0.002,0.0
2021-08-25T04:46:03,42.805,6.029,0.007,0.01,0.011,100.0,100.0,99.0,13.4,1505.2,329.1,-0.8,1.8,2470.419,13.28,0.012,35.0
2021-08-25T04:49:03,42.805,6.029,0.003,0.033,0.008,99.0,100.0,100.0,13.4,1505.2,327.1,-0.7,1.8,2470.433,13.28,0.033,5.2
2021-08-25T04:52:03,42.805,6.029,0.003,0.01,0.023,99.0,101.0,100.0,13.4,1505.2,328.2,-0.7,1.8,2470.468,13.28,0.01,16.7
2021-08-25T04:55:03,42.805,6.029,0.018,-0.008,0.014,99.0,102.0,99.0,13.4,1505.2,325.4,-0.7,1.8,2470.476,13.28,0.019,114.0
2021-08-25T04:58:03,42.805,6.029,-0.012,0.002,0.011,98.0,102.0,99.0,13.4,1505.2,327.0,-0.7,1.8,2470.449,13.28,0.012,279.5
2021-08-25T05:04:03,42.805,6.029,0.028,-0.007,-0.027,100.0,101.0,99.0,13.3,1505.2,328.5,-0.8,1.8,2470.444,13.28,0.028,104.0
2021-08-25T05:07:03,42.805,6.029,-0.002,0.001,0.011,101.0,101.0,100.0,13.4,1505.2,326.7,-0.8,1.8,2470.456,13.28,0.002,296.6
2021-08-25T05:10:03,42.805,6.029,0.002,0.034,0.033,100.0,101.0,100.0,13.3,1505.2,327.3,-0.7,1.8,2470.492,13.28,0.034,3.4
2021-08-25T05:13:03,42.805,6.029,0.019,0.0,0.0,100.0,101.0,99.0,13.4,1505.2,327.2,-0.7,1.8,2470.504,13.28,0.019,90.0
2021-08-25T05:16:03,42.805,6.029,0.013,0.005,-0.004,100.0,100.0,100.0,13.4,1505.2,326.7,-0.7,1.8,2470.474,13.28,0.013,69.0
2021-08-25T05:19:03,42.805,6.029,-0.008,-0.006,-0.027,100.0,102.0,99.0,13.3,1505.2,325.4,-0.8,1.8,2470.482,13.28,0.01,233.1
2021-08-25T05:22:03,42.805,6.029,0.015,0.005,0.006,100.0,103.0,99.0,13.4,1505.2,329.6,-0.8,1.8,2470.477,13.28,0.015,71.6
2021-08-25T05:25:03,42.805,6.029,0.006,0.0,0.001,100.0,101.0,99.0,13.4,1505.2,328.7,-0.8,1.8,2470.489,13.28,0.006,90.0
2021-08-25T05:28:03,42.805,6.029,0.019,0.003,0.021,100.0,100.0,100.0,13.3,1505.2,327.3,-0.7,1.8,2470.466,13.28,0.019,81.0
2021-08-25T05:31:03,42.805,6.029,0.013,-0.022,-0.012,98.0,100.0,101.0,13.4,1505.2,327.2,-0.7,1.8,2470.456,13.28,0.025,149.4
2021-08-25T05:34:03,42.805,6.029,0.0,0.013,-0.007,100.0,102.0,99.0,13.3,1505.2,326.2,-0.8,1.8,2470.467,13.28,0.013,0.0
2021-08-25T05:37:03,42.805,6.029,0.007,0.012,-0.002,100.0,101.0,99.0,13.4,1505.2,328.8,-0.7,1.8,2470.44,13.28,0.013,30.3
2021-08-25T05:40:03,42.805,6.029,0.029,-0.001,0.011,100.0,101.0,100.0,13.4,1505.2,328.5,-0.8,1.8,2470.469,13.28,0.029,92.0
2021-08-25T05:43:03,42.805,6.029,-0.02,0.016,0.022,100.0,102.0,100.0,13.3,1505.2,328.5,-0.7,1.8,2470.477,13.28,0.025,308.7
2021-08-25T05:46:03,42.805,6.029,0.016,-0.008,-0.01,101.0,101.0,99.0,13.4,1505.2,328.4,-0.7,1.8,2470.467,13.28,0.017,116.6
2021-08-25T05:49:03,42.805,6.029,0.02,-0.02,-0.027,102.0,102.0,100.0,13.3,1505.2,328.5,-0.8,1.8,2470.488,13.28,0.028,135.0
2021-08-25T05:52:03,42.805,6.029,-0.02,0.012,-0.016,100.0,103.0,100.0,13.4,1505.2,328.1,-0.7,1.8,2470.466,13.28,0.023,301.0
2021-08-25T05:55:03,42.805,6.029,-0.003,-0.001,-0.005,100.0,101.0,99.0,13.3,1505.2,328.8,-0.7,1.8,2470.481,13.28,0.003,251.6
2021-08-25T05:58:03,42.805,6.029,-0.025,0.012,0.011,101.0,102.0,99.0,13.4,1505.2,328.6,-0.7,1.8,2470.44,13.28,0.027,295.6
2021-08-25T06:04:03,42.805,6.029,-0.001,0.025,0.017,100.0,103.0,99.0,13.4,1505.2,325.5,-0.8,1.8,2470.503,13.28,0.025,357.7
2021-08-25T06:07:03,42.805,6.029,0.02,0.009,-0.02,98.0,100.0,101.0,13.3,1505.2,329.1,-0.8,1.8,2470.485,13.28,0.021,65.8
2021-08-25T06:10:03,42.805,6.029,-0.01,0.025,0.005,101.0,101.0,100.0,13.4,1505.2,329.2,-0.8,1.8,2470.484,13.28,0.026,338.2
2021-08-25T06:13:03,42.805,6.029,0.009,-0.008,0.013,100.0,101.0,100.0,13.4,1505.2,328.8,-0.7,1.9,2470.473,13.28,0.012,131.6
2021-08-25T06:16:03,42.805,6.029,0.003,0.016,0.034,100.0,101.0,100.0,13.4,1505.2,330.0,-0.8,1.9,2470.485,13.28,0.016,10.6
2021-08-25T06:19:03,42.805,6.029,0.031,0.008,-0.002,101.0,100.0,101.0,13.3,1505.2,325.5,-0.7,1.8,2470.5,13.28,0.032,75.5
2021-08-25T06:22:03,42.805,6.029,0.028,0.011,-0.005,100.0,104.0,101.0,13.3,1505.2,331.1,-0.8,1.8,2470.494,13.28,0.03,68.6
2021-08-25T06:25:03,42.805,6.029,0.011,-0.007,-0.021,100.0,102.0,100.0,13.4,1505.2,326.9,-0.7,1.8,2470.507,13.28,0.013,122.5
2021-08-25T06:28:03,42.805,6.029,0.009,-0.019,0.012,99.0,102.0,100.0,13.4,1505.2,330.1,-0.7,1.9,2470.479,13.28,0.021,154.7
2021-08-25T06:31:03,42.805,6.029,-0.012,0.008,-0.016,100.0,102.0,101.0,13.4,1505.2,327.4,-0.7,1.8,2470.517,13.28,0.014,303.7
2021-08-25T06:34:03,42.805,6.029,0.006,-0.017,-0.013,100.0,103.0,100.0,13.4,1505.2,328.9,-0.7,1.8,2470.518,13.28,0.018,160.6
2021-08-25T06:37:03,42.805,6.029,0.026,0.013,-0.004,100.0,100.0,101.0,13.3,1505.2,329.4,-0.7,1.8,2470.496,13.28,0.029,63.4
2021-08-25T06:40:03,42.805,6.029,-0.014,0.024,0.035,100.0,102.0,98.0,13.4,1505.2,327.7,-0.8,1.8,2470.479,13.28,0.027,329.7
2021-08-25T06:43:03,42.805,6.029,0.014,0.0,-0.027,101.0,101.0,100.0,13.3,1505.2,326.5,-0.7,1.8,2470.496,13.28,0.014,90.0
2021-08-25T06:46:03,42.805,6.029,0.017,-0.007,-0.022,100.0,101.0,100.0,13.4,1505.2,329.2,-0.8,1.8,2470.491,13.28,0.018,112.4
2021-08-25T06:49:03,42.805,6.029,0.008,0.0,0.006,100.0,101.0,100.0,13.4,1505.2,326.7,-0.8,1.8,2470.482,13.28,0.008,90.0
2021-08-25T06:52:03,42.805,6.029,0.022,0.002,0.003,99.0,102.0,101.0,13.4,1505.2,327.1,-0.8,1.8,2470.545,13.28,0.022,84.8
2021-08-25T06:55:03,42.805,6.029,0.009,0.006,-0.01,100.0,102.0,100.0,13.3,1505.2,329.5,-0.7,1.8,2470.531,13.28,0.01,56.3
2021-08-25T06:58:03,42.805,6.029,0.018,0.005,0.002,100.0,101.0,100.0,13.4,1505.2,325.9,-0.7,1.8,2470.524,13.28,0.018,74.5
2021-08-25T07:04:03,42.805,6.029,0.002,0.005,0.005,100.0,101.0,100.0,13.4,1505.2,329.2,-0.7,1.8,2470.55,13.28,0.005,21.8
2021-08-25T07:07:03,42.805,6.029,0.019,-0.005,0.007,100.0,102.0,99.0,13.3,1505.2,330.6,-0.7,1.8,2470.523,13.28,0.019,104.7
2021-08-25T07:10:03,42.805,6.029,0.01,-0.005,-0.041,99.0,102.0,100.0,13.3,1505.2,325.4,-0.8,1.8,2470.532,13.28,0.011,116.6
2021-08-25T07:13:03,42.805,6.029,0.038,-0.007,-0.007,100.0,101.0,100.0,13.4,1505.2,328.3,-0.8,1.8,2470.508,13.28,0.038,100.4
2021-08-25T07:16:03,42.805,6.029,0.017,0.011,0.032,100.0,101.0,100.0,13.4,1505.2,327.6,-0.8,1.8,2470.555,13.28,0.02,57.1
2021-08-25T07:19:03,42.805,6.029,0.007,0.004,0.027,102.0,100.0,99.0,13.4,1505.2,329.1,-0.8,1.8,2470.534,13.28,0.008,60.3
2021-08-25T07:22:03,42.805,6.029,-0.002,0.0,0.003,100.0,101.0,100.0,13.4,1505.2,325.6,-0.7,1.8,2470.518,13.28,0.002,270.0
2021-08-25T07:25:03,42.805,6.029,0.0,0.027,0.014,99.0,103.0,101.0,13.4,1505.2,325.0,-0.7,1.8,2470.535,13.28,0.026,0.0
2021-08-25T07:28:03,42.805,6.029,0.023,0.017,0.058,100.0,101.0,100.0,13.4,1505.2,328.3,-0.8,1.8,2470.559,13.28,0.028,53.5
2021-08-25T07:31:03,42.805,6.029,0.017,0.01,0.0,100.0,100.0,101.0,13.4,1505.2,329.3,-0.8,1.8,2470.508,13.28,0.019,59.5
2021-08-25T07:34:03,42.805,6.029,0.018,0.007,0.006,101.0,101.0,99.0,13.4,1505.2,328.5,-0.8,1.8,2470.511,13.28,0.019,68.8
2021-08-25T07:37:03,42.805,6.029,0.006,-0.002,0.0,99.0,102.0,100.0,13.4,1505.2,330.3,-0.8,1.8,2470.501,13.28,0.006,108.4
2021-08-25T07:40:03,42.805,6.029,-0.003,0.026,-0.014,100.0,101.0,100.0,13.3,1505.2,328.1,-0.7,1.8,2470.526,13.28,0.026,353.4
2021-08-25T07:43:03,42.805,6.029,0.05,0.0,0.032,100.0,101.0,100.0,13.4,1505.2,326.1,-0.8,1.8,2470.507,13.28,0.05,90.0
2021-08-25T07:46:03,42.805,6.029,0.018,0.015,0.007,101.0,102.0,99.0,13.4,1505.2,325.8,-0.7,1.8,2470.5,13.28,0.023,50.2
2021-08-25T07:49:03,42.805,6.029,0.003,0.022,0.014,100.0,104.0,100.0,13.4,1505.2,328.4,-0.8,1.8,2470.56,13.28,0.022,7.8
2021-08-25T07:52:03,42.805,6.029,0.018,0.015,0.015,99.0,101.0,102.0,13.4,1505.2,327.1,-0.7,1.8,2470.504,13.28,0.023,50.2
2021-08-25T07:55:03,42.805,6.029,0.009,0.0,0.003,100.0,101.0,99.0,13.3,1505.2,327.4,-0.7,1.8,2470.513,13.28,0.009,90.0
2021-08-25T07:58:03,42.805,6.029,0.004,0.013,0.009,101.0,102.0,100.0,13.4,1505.2,326.5,-0.7,1.9,2470.523,13.28,0.013,17.1
2021-08-25T08:04:03,42.805,6.029,0.002,0.01,0.007,101.0,102.0,100.0,13.4,1505.2,325.7,-0.7,1.8,2470.568,13.28,0.01,11.3
2021-08-25T08:07:03,42.805,6.029,0.009,0.007,-0.002,101.0,102.0,99.0,13.3,1505.2,328.9,-0.8,1.8,2470.541,13.28,0.011,52.1
2021-08-25T08:10:03,42.805,6.029,0.029,0.007,-0.002,100.0,103.0,99.0,13.4,1505.2,325.3,-0.8,1.8,2470.569,13.28,0.029,76.4
2021-08-25T08:13:03,42.805,6.029,0.022,0.031,0.034,102.0,100.0,100.0,13.3,1505.2,327.4,-0.8,1.8,2470.531,13.28,0.038,35.4
2021-08-25T08:16:03,42.805,6.029,-0.001,0.005,0.009,100.0,102.0,100.0,13.4,1505.2,327.6,-0.8,1.8,2470.536,13.28,0.005,348.7
2021-08-25T08:19:03,42.805,6.029,0.023,0.002,0.001,100.0,102.0,99.0,13.3,1505.2,326.9,-0.7,1.8,2470.545,13.28,0.023,85.0
2021-08-25T08:22:03,42.805,6.029,0.034,0.021,0.027,101.0,101.0,101.0,13.3,1505.2,326.0,-0.8,1.8,2470.522,13.28,0.039,58.3
2021-08-25T08:25:03,42.805,6.029,0.037,0.014,0.035,101.0,101.0,100.0,13.4,1505.2,325.5,-0.7,1.8,2470.521,13.28,0.039,69.3
2021-08-25T08:28:03,42.805,6.029,0.005,-0.013,-0.036,99.0,101.0,100.0,13.3,1505.2,328.0,-0.7,1.8,2470.52,13.28,0.013,159.0
2021-08-25T08:31:03,42.805,6.029,0.022,-0.005,-0.003,100.0,102.0,101.0,13.4,1505.2,329.2,-0.8,1.8,2470.586,13.28,0.022,102.8
2021-08-25T08:34:03,42.805,6.029,0.009,-0.004,-0.019,100.0,102.0,100.0,13.4,1505.2,327.0,-0.8,1.8,2470.566,13.28,0.009,114.0
2021-08-25T08:37:03,42.805,6.029,0.014,0.0,0.025,100.0,102.0,100.0,13.4,1505.2,327.7,-0.7,1.8,2470.522,13.28,0.014,90.0
2021-08-25T08:40:03,42.805,6.029,0.02,-0.014,0.002,100.0,102.0,100.0,13.3,1505.2,328.9,-0.7,1.8,2470.559,13.28,0.024,125.0
2021-08-25T08:43:03,42.805,6.029,0.027,0.0,0.001,100.0,102.0,100.0,13.3,1505.2,325.6,-0.7,1.8,2470.565,13.28,0.026,90.0
2021-08-25T08:46:03,42.805,6.029,0.008,-0.017,-0.01,101.0,101.0,100.0,13.4,1505.2,325.2,-0.8,1.8,2470.496,13.28,0.018,154.8
2021-08-25T08:49:03,42.805,6.029,0.032,-0.01,0.012,101.0,102.0,100.0,13.3,1505.2,329.4,-0.7,1.9,2470.551,13.28,0.033,107.4
2021-08-25T08:52:03,42.805,6.029,0.038,-0.016,0.0,100.0,102.0,100.0,13.4,1505.2,329.5,-0.8,1.8,2470.533,13.28,0.041,112.8
2021-08-25T08:55:03,42.805,6.029,-0.008,0.015,0.004,101.0,101.0,100.0,13.4,1505.2,328.2,-0.7,1.9,2470.565,13.28,0.017,331.9
2021-08-25T08:58:03,42.805,6.029,0.01,0.025,0.021,101.0,101.0,100.0,13.3,1505.2,327.9,-0.8,1.8,2470.531,13.28,0.026,21.8
2021-08-25T09:04:03,42.805,6.029,-0.02,0.001,-0.011,100.0,101.0,100.0,13.4,1505.2,330.8,-0.7,1.8,2470.543,13.28,0.02,272.9
2021-08-25T09:07:03,42.805,6.029,0.014,-0.007,0.001,101.0,100.0,100.0,13.4,1505.2,328.5,-0.7,1.8,2470.548,13.28,0.015,116.6
2021-08-25T09:10:03,42.805,6.029,0.013,0.024,0.035,99.0,103.0,99.0,13.3,1505.2,325.7,-0.8,1.8,2470.565,13.28,0.027,28.4
2021-08-25T09:13:03,42.805,6.029,0.0,-0.005,-0.012,100.0,102.0,100.0,13.4,1505.2,327.3,-0.7,1.8,2470.522,13.28,0.005,180.0
2021-08-25T09:16:03,42.805,6.029,0.006,0.002,0.009,100.0,102.0,100.0,13.3,1505.2,330.4,-0.7,1.8,2470.55,13.28,0.006,71.6
2021-08-25T09:19:03,42.805,6.029,0.021,0.002,-0.006,100.0,101.0,100.0,13.4,1505.2,328.2,-0.8,1.8,2470.505,13.28,0.021,84.6
2021-08-25T09:22:03,42.805,6.029,0.014,0.007,0.01,100.0,102.0,100.0,13.4,1505.2,327.9,-0.8,1.8,2470.545,13.28,0.015,63.4
2021-08-25T09:25:03,42.805,6.029,0.023,0.005,0.017,100.0,102.0,100.0,13.3,1505.2,329.2,-0.7,1.8,2470.54,13.28,0.023,77.7
2021-08-25T09:28:03,42.805,6.029,0.002,-0.013,-0.004,100.0,101.0,100.0,13.3,1505.2,326.6,-0.7,1.8,2470.524,13.28,0.013,171.3
2021-08-25T09:31:03,42.805,6.029,0.014,0.0,0.012,100.0,101.0,100.0,13.3,1505.2,329.2,-0.7,1.8,2470.566,13.28,0.014,90.0
2021-08-25T09:34:03,42.805,6.029,0.013,-0.009,-0.013,100.0,102.0,100.0,13.4,1505.2,329.1,-0.8,1.8,2470.533,13.28,0.015,124.7
2021-08-25T09:37:03,42.805,6.029,0.009,0.007,0.031,100.0,101.0,100.0,13.3,1505.2,329.7,-0.8,1.8,2470.533,13.28,0.011,52.1
2021-08-25T09:40:03,42.805,6.029,0.0,0.011,0.001,100.0,101.0,100.0,13.4,1505.2,328.6,-0.7,1.9,2470.556,13.28,0.011,0.0
2021-08-25T09:43:03,42.805,6.029,0.036,0.011,-0.006,100.0,102.0,100.0,13.3,1505.2,325.7,-0.8,1.8,2470.53,13.28,0.037,73.0
2021-08-25T09:46:03,42.805,6.029,0.02,-0.018,0.01,100.0,102.0,100.0,13.3,1505.2,331.0,-0.8,1.8,2470.582,13.28,0.026,132.0
2021-08-25T09:49:03,42.805,6.029,0.032,-0.002,0.021,100.0,101.0,100.0,13.3,1505.2,327.5,-0.8,1.8,2470.514,13.28,0.032,93.6
2021-08-25T09:52:03,42.805,6.029,0.034,0.0,0.0,100.0,101.0,99.0,13.3,1505.2,325.9,-0.7,1.9,2470.533,13.28,0.034,90.0
2021-08-25T09:55:03,42.805,6.029,0.036,-0.008,-0.015,100.0,103.0,100.0,13.3,1505.2,331.0,-0.7,1.8,2470.553,13.28,0.036,102.5
2021-08-25T09:58:03,42.805,6.029,0.021,0.018,0.002,100.0,101.0,100.0,13.4,1505.2,325.7,-0.8,1.8,2470.51,13.28,0.027,49.4
2021-08-25T10:04:03,42.805,6.029,0.005,0.003,-0.008,100.0,101.0,100.0,13.3,1505.2,326.0,-0.8,1.8,2470.552,13.28,0.005,59.0